owner,sensor,date,latitude,longitude,air_temperature,qcFlag 
COMPS,ioos:station:USF.COMPS:NFB:1,2011-09-01T00:00:00Z,25.0840,-81.0960,28.71,1111122 
COMPS,ioos:station:USF.COMPS:NFB:1,2011-09-01T00:06:00Z,25.0840,-81.0960,28.72,1111122 
COMPS,ioos:station:USF.COMPS:NFB:1,2011-09-01T00:12:00Z,25.0840,-81.0960,28.76,1111122 
COMPS,ioos:station:USF.COMPS:NFB:1,2011-09-01T00:18:00Z,25.0840,-81.0960,28.73,1111122 
COMPS,ioos:station:USF.COMPS:NFB:1,2011-09-01T00:24:00Z,25.0840,-81.0960,28.64,1111122 
COMPS,ioos:station:USF.COMPS:NFB:1,2011-09-01T00:30:00Z,25.0840,-81.0960,28.63,1111122 
COMPS,ioos:station:USF.COMPS:NFB:1,2011-09-01T00:36:00Z,25.0840,-81.0960,28.5,1111122 
COMPS,ioos:station:USF.COMPS:NFB:1,2011-09-01T00:42:00Z,25.0840,-81.0960,28.47,1111122 
COMPS,ioos:station:USF.COMPS:NFB:1,2011-09-01T00:48:00Z,25.0840,-81.0960,28.44,1111122 
COMPS,ioos:station:USF.COMPS:NFB:1,2011-09-01T00:54:00Z,25.0840,-81.0960,28.31,1111122 
COMPS,ioos:station:USF.COMPS:NFB:1,2011-09-01T01:00:00Z,25.0840,-81.0960,28.06,1111122 
COMPS,ioos:station:USF.COMPS:NFB:1,2011-09-01T01:06:00Z,25.0840,-81.0960,27.99,1111122 
COMPS,ioos:station:USF.COMPS:NFB:1,2011-09-01T01:12:00Z,25.0840,-81.0960,27.8,1111122 
COMPS,ioos:station:USF.COMPS:NFB:1,2011-09-01T01:18:00Z,25.0840,-81.0960,27.75,1111122 
COMPS,ioos:station:USF.COMPS:NFB:1,2011-09-01T01:24:00Z,25.0840,-81.0960,27.85,1111122 
COMPS,ioos:station:USF.COMPS:NFB:1,2011-09-01T01:30:00Z,25.0840,-81.0960,27.9,1111122 
COMPS,ioos:station:USF.COMPS:NFB:1,2011-09-01T01:36:00Z,25.0840,-81.0960,27.92,1111122 
COMPS,ioos:station:USF.COMPS:NFB:1,2011-09-01T01:42:00Z,25.0840,-81.0960,27.89,1111122 
COMPS,ioos:station:USF.COMPS:NFB:1,2011-09-01T01:48:00Z,25.0840,-81.0960,27.93,1111122 
COMPS,ioos:station:USF.COMPS:NFB:1,2011-09-01T01:54:00Z,25.0840,-81.0960,27.98,1111122 
COMPS,ioos:station:USF.COMPS:NFB:1,2011-09-01T02:00:00Z,25.0840,-81.0960,27.93,1111122 
COMPS,ioos:station:USF.COMPS:NFB:1,2011-09-01T02:06:00Z,25.0840,-81.0960,27.98,1111122 
COMPS,ioos:station:USF.COMPS:NFB:1,2011-09-01T02:12:00Z,25.0840,-81.0960,28.01,1111122 
COMPS,ioos:station:USF.COMPS:NFB:1,2011-09-01T02:18:00Z,25.0840,-81.0960,28.02,1111122 
COMPS,ioos:station:USF.COMPS:NFB:1,2011-09-01T02:24:00Z,25.0840,-81.0960,27.99,1111122 
COMPS,ioos:station:USF.COMPS:NFB:1,2011-09-01T02:30:00Z,25.0840,-81.0960,27.96,1111122 
COMPS,ioos:station:USF.COMPS:NFB:1,2011-09-01T02:36:00Z,25.0840,-81.0960,28.01,1111122 
COMPS,ioos:station:USF.COMPS:NFB:1,2011-09-01T02:42:00Z,25.0840,-81.0960,27.91,1111122 
COMPS,ioos:station:USF.COMPS:NFB:1,2011-09-01T02:48:00Z,25.0840,-81.0960,27.98,1111122 
COMPS,ioos:station:USF.COMPS:NFB:1,2011-09-01T02:54:00Z,25.0840,-81.0960,28.05,1111122 
COMPS,ioos:station:USF.COMPS:NFB:1,2011-09-01T03:00:00Z,25.0840,-81.0960,28.03,1111122 
COMPS,ioos:station:USF.COMPS:NFB:1,2011-09-01T03:06:00Z,25.0840,-81.0960,28.05,1111122 
COMPS,ioos:station:USF.COMPS:NFB:1,2011-09-01T03:12:00Z,25.0840,-81.0960,28.06,1111122 
COMPS,ioos:station:USF.COMPS:NFB:1,2011-09-01T03:18:00Z,25.0840,-81.0960,27.94,1111122 
COMPS,ioos:station:USF.COMPS:NFB:1,2011-09-01T03:24:00Z,25.0840,-81.0960,27.96,1111122 
COMPS,ioos:station:USF.COMPS:NFB:1,2011-09-01T03:30:00Z,25.0840,-81.0960,27.82,1111122 
COMPS,ioos:station:USF.COMPS:NFB:1,2011-09-01T03:36:00Z,25.0840,-81.0960,27.79,1111122 
COMPS,ioos:station:USF.COMPS:NFB:1,2011-09-01T03:42:00Z,25.0840,-81.0960,27.77,1111122 
COMPS,ioos:station:USF.COMPS:NFB:1,2011-09-01T03:48:00Z,25.0840,-81.0960,27.81,1111122 
COMPS,ioos:station:USF.COMPS:NFB:1,2011-09-01T03:54:00Z,25.0840,-81.0960,27.98,1111122 
COMPS,ioos:station:USF.COMPS:NFB:1,2011-09-01T04:00:00Z,25.0840,-81.0960,28.12,1111122 
COMPS,ioos:station:USF.COMPS:NFB:1,2011-09-01T04:06:00Z,25.0840,-81.0960,28.19,1111122 
COMPS,ioos:station:USF.COMPS:NFB:1,2011-09-01T04:12:00Z,25.0840,-81.0960,28.2,1111122 
COMPS,ioos:station:USF.COMPS:NFB:1,2011-09-01T04:18:00Z,25.0840,-81.0960,28.12,1111122 
COMPS,ioos:station:USF.COMPS:NFB:1,2011-09-01T04:24:00Z,25.0840,-81.0960,28.14,1111122 
COMPS,ioos:station:USF.COMPS:NFB:1,2011-09-01T04:30:00Z,25.0840,-81.0960,28.12,1111122 
COMPS,ioos:station:USF.COMPS:NFB:1,2011-09-01T04:36:00Z,25.0840,-81.0960,28.15,1111122 
COMPS,ioos:station:USF.COMPS:NFB:1,2011-09-01T04:42:00Z,25.0840,-81.0960,28.0,1111122 
COMPS,ioos:station:USF.COMPS:NFB:1,2011-09-01T04:48:00Z,25.0840,-81.0960,27.89,1111122 
COMPS,ioos:station:USF.COMPS:NFB:1,2011-09-01T04:54:00Z,25.0840,-81.0960,27.8,1111122 
COMPS,ioos:station:USF.COMPS:NFB:1,2011-09-01T19:00:00Z,25.0840,-81.0960,30.43,1111122 
COMPS,ioos:station:USF.COMPS:NFB:1,2011-09-01T19:06:00Z,25.0840,-81.0960,30.45,1111122 
COMPS,ioos:station:USF.COMPS:NFB:1,2011-09-01T19:12:00Z,25.0840,-81.0960,30.48,1111122 
COMPS,ioos:station:USF.COMPS:NFB:1,2011-09-01T19:18:00Z,25.0840,-81.0960,30.51,1111122 
COMPS,ioos:station:USF.COMPS:NFB:1,2011-09-01T19:24:00Z,25.0840,-81.0960,30.48,1111122 
COMPS,ioos:station:USF.COMPS:NFB:1,2011-09-01T19:30:00Z,25.0840,-81.0960,30.44,1111122 
COMPS,ioos:station:USF.COMPS:NFB:1,2011-09-01T19:36:00Z,25.0840,-81.0960,30.47,1111122 
COMPS,ioos:station:USF.COMPS:NFB:1,2011-09-01T19:42:00Z,25.0840,-81.0960,30.43,1111122 
COMPS,ioos:station:USF.COMPS:NFB:1,2011-09-01T19:48:00Z,25.0840,-81.0960,30.48,1111122 
COMPS,ioos:station:USF.COMPS:NFB:1,2011-09-01T19:54:00Z,25.0840,-81.0960,30.52,1111122 
COMPS,ioos:station:USF.COMPS:NFB:1,2011-09-01T20:00:00Z,25.0840,-81.0960,30.52,1111122 
COMPS,ioos:station:USF.COMPS:NFB:1,2011-09-01T20:06:00Z,25.0840,-81.0960,30.49,1111122 
COMPS,ioos:station:USF.COMPS:NFB:1,2011-09-01T20:12:00Z,25.0840,-81.0960,30.49,1111122 
COMPS,ioos:station:USF.COMPS:NFB:1,2011-09-01T20:18:00Z,25.0840,-81.0960,30.51,1111122 
COMPS,ioos:station:USF.COMPS:NFB:1,2011-09-01T20:24:00Z,25.0840,-81.0960,30.47,1111122 
COMPS,ioos:station:USF.COMPS:NFB:1,2011-09-01T20:30:00Z,25.0840,-81.0960,30.44,1111122 
COMPS,ioos:station:USF.COMPS:NFB:1,2011-09-01T20:36:00Z,25.0840,-81.0960,30.47,1111122 
COMPS,ioos:station:USF.COMPS:NFB:1,2011-09-01T20:42:00Z,25.0840,-81.0960,30.41,1111122 
COMPS,ioos:station:USF.COMPS:NFB:1,2011-09-01T20:48:00Z,25.0840,-81.0960,30.46,1111122 
COMPS,ioos:station:USF.COMPS:NFB:1,2011-09-01T20:54:00Z,25.0840,-81.0960,30.45,1111122 
COMPS,ioos:station:USF.COMPS:NFB:1,2011-09-01T21:00:00Z,25.0840,-81.0960,30.46,1111122 
COMPS,ioos:station:USF.COMPS:NFB:1,2011-09-01T21:06:00Z,25.0840,-81.0960,30.45,1111122 
COMPS,ioos:station:USF.COMPS:NFB:1,2011-09-01T21:12:00Z,25.0840,-81.0960,30.44,1111122 
COMPS,ioos:station:USF.COMPS:NFB:1,2011-09-01T21:18:00Z,25.0840,-81.0960,30.44,1111122 
COMPS,ioos:station:USF.COMPS:NFB:1,2011-09-01T21:24:00Z,25.0840,-81.0960,30.45,1111122 
COMPS,ioos:station:USF.COMPS:NFB:1,2011-09-01T21:30:00Z,25.0840,-81.0960,30.34,1111122 
COMPS,ioos:station:USF.COMPS:NFB:1,2011-09-01T21:36:00Z,25.0840,-81.0960,30.36,1111122 
COMPS,ioos:station:USF.COMPS:NFB:1,2011-09-01T21:42:00Z,25.0840,-81.0960,30.32,1111122 
COMPS,ioos:station:USF.COMPS:NFB:1,2011-09-01T21:48:00Z,25.0840,-81.0960,30.29,1111122 
COMPS,ioos:station:USF.COMPS:NFB:1,2011-09-01T21:54:00Z,25.0840,-81.0960,30.24,1111122 
COMPS,ioos:station:USF.COMPS:NFB:1,2011-09-01T22:00:00Z,25.0840,-81.0960,30.24,1111122 
COMPS,ioos:station:USF.COMPS:NFB:1,2011-09-01T22:06:00Z,25.0840,-81.0960,30.25,1111122 
COMPS,ioos:station:USF.COMPS:NFB:1,2011-09-01T22:12:00Z,25.0840,-81.0960,30.21,1111122 
COMPS,ioos:station:USF.COMPS:NFB:1,2011-09-01T22:18:00Z,25.0840,-81.0960,30.23,1111122 
COMPS,ioos:station:USF.COMPS:NFB:1,2011-09-01T22:24:00Z,25.0840,-81.0960,30.24,1111122 
COMPS,ioos:station:USF.COMPS:NFB:1,2011-09-01T22:30:00Z,25.0840,-81.0960,30.19,1111122 
COMPS,ioos:station:USF.COMPS:NFB:1,2011-09-01T22:36:00Z,25.0840,-81.0960,30.2,1111122 
COMPS,ioos:station:USF.COMPS:NFB:1,2011-09-01T22:42:00Z,25.0840,-81.0960,30.2,1111122 
COMPS,ioos:station:USF.COMPS:NFB:1,2011-09-01T22:48:00Z,25.0840,-81.0960,30.19,1111122 
COMPS,ioos:station:USF.COMPS:NFB:1,2011-09-01T22:54:00Z,25.0840,-81.0960,30.17,1111122 
COMPS,ioos:station:USF.COMPS:NFB:1,2011-09-01T23:00:00Z,25.0840,-81.0960,30.14,1111122 
COMPS,ioos:station:USF.COMPS:NFB:1,2011-09-01T23:06:00Z,25.0840,-81.0960,30.05,1111122 
COMPS,ioos:station:USF.COMPS:NFB:1,2011-09-01T23:12:00Z,25.0840,-81.0960,30.04,1111122 
COMPS,ioos:station:USF.COMPS:NFB:1,2011-09-01T23:18:00Z,25.0840,-81.0960,29.93,1111122 
COMPS,ioos:station:USF.COMPS:NFB:1,2011-09-01T23:24:00Z,25.0840,-81.0960,29.94,1111122 
COMPS,ioos:station:USF.COMPS:NFB:1,2011-09-01T23:30:00Z,25.0840,-81.0960,29.19,1111122 
COMPS,ioos:station:USF.COMPS:NFB:1,2011-09-01T23:36:00Z,25.0840,-81.0960,28.82,1111122 
COMPS,ioos:station:USF.COMPS:NFB:1,2011-09-01T23:42:00Z,25.0840,-81.0960,28.69,1111122 
COMPS,ioos:station:USF.COMPS:NFB:1,2011-09-01T23:48:00Z,25.0840,-81.0960,28.57,1111122 
COMPS,ioos:station:USF.COMPS:NFB:1,2011-09-01T23:54:00Z,25.0840,-81.0960,28.36,1111122 
COMPS,ioos:station:USF.COMPS:NFB:1,2011-09-02T00:00:00Z,25.0840,-81.0960,28.31,1111122 
COMPS,ioos:station:USF.COMPS:NFB:1,2011-09-02T00:06:00Z,25.0840,-81.0960,28.34,1111122 
COMPS,ioos:station:USF.COMPS:NFB:1,2011-09-02T00:12:00Z,25.0840,-81.0960,28.33,1111122 
COMPS,ioos:station:USF.COMPS:NFB:1,2011-09-02T00:18:00Z,25.0840,-81.0960,28.36,1111122 
COMPS,ioos:station:USF.COMPS:NFB:1,2011-09-02T00:24:00Z,25.0840,-81.0960,28.2,1111122 
COMPS,ioos:station:USF.COMPS:NFB:1,2011-09-02T00:30:00Z,25.0840,-81.0960,28.17,1111122 
COMPS,ioos:station:USF.COMPS:NFB:1,2011-09-02T00:36:00Z,25.0840,-81.0960,28.14,1111122 
COMPS,ioos:station:USF.COMPS:NFB:1,2011-09-02T00:42:00Z,25.0840,-81.0960,28.09,1111122 
COMPS,ioos:station:USF.COMPS:NFB:1,2011-09-02T00:48:00Z,25.0840,-81.0960,28.09,1111122 
COMPS,ioos:station:USF.COMPS:NFB:1,2011-09-02T00:54:00Z,25.0840,-81.0960,28.11,1111122 
COMPS,ioos:station:USF.COMPS:NFB:1,2011-09-02T01:00:00Z,25.0840,-81.0960,28.04,1111122 
COMPS,ioos:station:USF.COMPS:NFB:1,2011-09-02T01:06:00Z,25.0840,-81.0960,27.95,1111122 
COMPS,ioos:station:USF.COMPS:NFB:1,2011-09-02T01:12:00Z,25.0840,-81.0960,27.84,1111122 
COMPS,ioos:station:USF.COMPS:NFB:1,2011-09-02T01:18:00Z,25.0840,-81.0960,27.77,1111122 
COMPS,ioos:station:USF.COMPS:NFB:1,2011-09-02T01:24:00Z,25.0840,-81.0960,27.75,1111122 
COMPS,ioos:station:USF.COMPS:NFB:1,2011-09-02T01:30:00Z,25.0840,-81.0960,27.73,1111122 
COMPS,ioos:station:USF.COMPS:NFB:1,2011-09-02T01:36:00Z,25.0840,-81.0960,27.68,1111122 
COMPS,ioos:station:USF.COMPS:NFB:1,2011-09-02T01:42:00Z,25.0840,-81.0960,27.57,1111122 
COMPS,ioos:station:USF.COMPS:NFB:1,2011-09-02T01:48:00Z,25.0840,-81.0960,27.55,1111122 
COMPS,ioos:station:USF.COMPS:NFB:1,2011-09-02T01:54:00Z,25.0840,-81.0960,27.53,1111122 
COMPS,ioos:station:USF.COMPS:NFB:1,2011-09-02T02:00:00Z,25.0840,-81.0960,27.48,1111122 
COMPS,ioos:station:USF.COMPS:NFB:1,2011-09-02T02:06:00Z,25.0840,-81.0960,27.44,1111122 
COMPS,ioos:station:USF.COMPS:NFB:1,2011-09-02T02:12:00Z,25.0840,-81.0960,27.35,1111122 
COMPS,ioos:station:USF.COMPS:NFB:1,2011-09-02T02:18:00Z,25.0840,-81.0960,27.36,1111122 
COMPS,ioos:station:USF.COMPS:NFB:1,2011-09-02T02:24:00Z,25.0840,-81.0960,27.34,1111122 
COMPS,ioos:station:USF.COMPS:NFB:1,2011-09-02T02:30:00Z,25.0840,-81.0960,27.32,1111122 
COMPS,ioos:station:USF.COMPS:NFB:1,2011-09-02T02:36:00Z,25.0840,-81.0960,27.37,1111122 
COMPS,ioos:station:USF.COMPS:NFB:1,2011-09-02T02:42:00Z,25.0840,-81.0960,27.38,1111122 
COMPS,ioos:station:USF.COMPS:NFB:1,2011-09-02T02:48:00Z,25.0840,-81.0960,27.34,1111122 
COMPS,ioos:station:USF.COMPS:NFB:1,2011-09-02T02:54:00Z,25.0840,-81.0960,27.36,1111122 
COMPS,ioos:station:USF.COMPS:NFB:1,2011-09-02T03:00:00Z,25.0840,-81.0960,27.4,1111122 
COMPS,ioos:station:USF.COMPS:NFB:1,2011-09-02T03:06:00Z,25.0840,-81.0960,27.52,1111122 
COMPS,ioos:station:USF.COMPS:NFB:1,2011-09-02T03:12:00Z,25.0840,-81.0960,27.45,1111122 
COMPS,ioos:station:USF.COMPS:NFB:1,2011-09-02T03:18:00Z,25.0840,-81.0960,27.37,1111122 
COMPS,ioos:station:USF.COMPS:NFB:1,2011-09-02T03:24:00Z,25.0840,-81.0960,27.34,1111122 
COMPS,ioos:station:USF.COMPS:NFB:1,2011-09-02T03:30:00Z,25.0840,-81.0960,27.28,1111122 
COMPS,ioos:station:USF.COMPS:NFB:1,2011-09-02T03:36:00Z,25.0840,-81.0960,27.35,1111122 
COMPS,ioos:station:USF.COMPS:NFB:1,2011-09-02T03:42:00Z,25.0840,-81.0960,27.28,1111122 
COMPS,ioos:station:USF.COMPS:NFB:1,2011-09-02T03:48:00Z,25.0840,-81.0960,27.17,1111122 
COMPS,ioos:station:USF.COMPS:NFB:1,2011-09-02T03:54:00Z,25.0840,-81.0960,27.14,1111122 
COMPS,ioos:station:USF.COMPS:NFB:1,2011-09-02T04:00:00Z,25.0840,-81.0960,27.2,1111122 
COMPS,ioos:station:USF.COMPS:NFB:1,2011-09-02T04:06:00Z,25.0840,-81.0960,27.17,1111122 
COMPS,ioos:station:USF.COMPS:NFB:1,2011-09-02T04:12:00Z,25.0840,-81.0960,27.24,1111122 
COMPS,ioos:station:USF.COMPS:NFB:1,2011-09-02T04:18:00Z,25.0840,-81.0960,27.29,1111122 
COMPS,ioos:station:USF.COMPS:NFB:1,2011-09-02T04:24:00Z,25.0840,-81.0960,27.25,1111122 
COMPS,ioos:station:USF.COMPS:NFB:1,2011-09-02T04:30:00Z,25.0840,-81.0960,27.23,1111122 
COMPS,ioos:station:USF.COMPS:NFB:1,2011-09-02T04:36:00Z,25.0840,-81.0960,27.27,1111122 
COMPS,ioos:station:USF.COMPS:NFB:1,2011-09-02T04:42:00Z,25.0840,-81.0960,27.31,1111122 
COMPS,ioos:station:USF.COMPS:NFB:1,2011-09-02T04:48:00Z,25.0840,-81.0960,27.43,1111122 
COMPS,ioos:station:USF.COMPS:NFB:1,2011-09-02T04:54:00Z,25.0840,-81.0960,27.49,1111122 
COMPS,ioos:station:USF.COMPS:NFB:1,2011-09-02T05:00:00Z,25.0840,-81.0960,27.49,1111122 
COMPS,ioos:station:USF.COMPS:NFB:1,2011-09-02T05:06:00Z,25.0840,-81.0960,27.53,1111122 
COMPS,ioos:station:USF.COMPS:NFB:1,2011-09-02T05:12:00Z,25.0840,-81.0960,27.49,1111122 
COMPS,ioos:station:USF.COMPS:NFB:1,2011-09-02T05:18:00Z,25.0840,-81.0960,27.52,1111122 
COMPS,ioos:station:USF.COMPS:NFB:1,2011-09-02T05:24:00Z,25.0840,-81.0960,27.55,1111122 
COMPS,ioos:station:USF.COMPS:NFB:1,2011-09-02T05:30:00Z,25.0840,-81.0960,27.48,1111122 
COMPS,ioos:station:USF.COMPS:NFB:1,2011-09-02T05:36:00Z,25.0840,-81.0960,27.52,1111122 
COMPS,ioos:station:USF.COMPS:NFB:1,2011-09-02T05:42:00Z,25.0840,-81.0960,27.42,1111122 
COMPS,ioos:station:USF.COMPS:NFB:1,2011-09-02T05:48:00Z,25.0840,-81.0960,27.49,1111122 
COMPS,ioos:station:USF.COMPS:NFB:1,2011-09-02T05:54:00Z,25.0840,-81.0960,27.46,1111122 
COMPS,ioos:station:USF.COMPS:NFB:1,2011-09-02T06:00:00Z,25.0840,-81.0960,27.41,1111122 
COMPS,ioos:station:USF.COMPS:NFB:1,2011-09-02T06:06:00Z,25.0840,-81.0960,27.37,1111122 
COMPS,ioos:station:USF.COMPS:NFB:1,2011-09-02T06:12:00Z,25.0840,-81.0960,27.38,1111122 
COMPS,ioos:station:USF.COMPS:NFB:1,2011-09-02T06:18:00Z,25.0840,-81.0960,27.36,1111122 
COMPS,ioos:station:USF.COMPS:NFB:1,2011-09-02T06:24:00Z,25.0840,-81.0960,27.41,1111122 
COMPS,ioos:station:USF.COMPS:NFB:1,2011-09-02T06:30:00Z,25.0840,-81.0960,27.42,1111122 
COMPS,ioos:station:USF.COMPS:NFB:1,2011-09-02T06:36:00Z,25.0840,-81.0960,27.48,1111122 
COMPS,ioos:station:USF.COMPS:NFB:1,2011-09-02T06:42:00Z,25.0840,-81.0960,27.56,1111122 
COMPS,ioos:station:USF.COMPS:NFB:1,2011-09-02T06:48:00Z,25.0840,-81.0960,27.49,1111122 
COMPS,ioos:station:USF.COMPS:NFB:1,2011-09-02T06:54:00Z,25.0840,-81.0960,27.36,1111122 
COMPS,ioos:station:USF.COMPS:NFB:1,2011-09-02T07:00:00Z,25.0840,-81.0960,27.38,1111122 
COMPS,ioos:station:USF.COMPS:NFB:1,2011-09-02T07:06:00Z,25.0840,-81.0960,27.4,1111122 
COMPS,ioos:station:USF.COMPS:NFB:1,2011-09-02T07:12:00Z,25.0840,-81.0960,27.39,1111122 
COMPS,ioos:station:USF.COMPS:NFB:1,2011-09-02T07:18:00Z,25.0840,-81.0960,27.31,1111122 
COMPS,ioos:station:USF.COMPS:NFB:1,2011-09-02T07:24:00Z,25.0840,-81.0960,27.24,1111122 
COMPS,ioos:station:USF.COMPS:NFB:1,2011-09-02T07:30:00Z,25.0840,-81.0960,27.16,1111122 
COMPS,ioos:station:USF.COMPS:NFB:1,2011-09-02T07:36:00Z,25.0840,-81.0960,27.2,1111122 
COMPS,ioos:station:USF.COMPS:NFB:1,2011-09-02T07:42:00Z,25.0840,-81.0960,27.16,1111122 
COMPS,ioos:station:USF.COMPS:NFB:1,2011-09-02T07:48:00Z,25.0840,-81.0960,27.13,1111122 
COMPS,ioos:station:USF.COMPS:NFB:1,2011-09-02T07:54:00Z,25.0840,-81.0960,27.16,1111122 
COMPS,ioos:station:USF.COMPS:NFB:1,2011-09-02T08:00:00Z,25.0840,-81.0960,27.19,1111122 
COMPS,ioos:station:USF.COMPS:NFB:1,2011-09-02T08:06:00Z,25.0840,-81.0960,27.18,1111122 
COMPS,ioos:station:USF.COMPS:NFB:1,2011-09-02T08:12:00Z,25.0840,-81.0960,27.18,1111122 
COMPS,ioos:station:USF.COMPS:NFB:1,2011-09-02T08:18:00Z,25.0840,-81.0960,27.2,1111122 
COMPS,ioos:station:USF.COMPS:NFB:1,2011-09-02T08:24:00Z,25.0840,-81.0960,27.1,1111122 
COMPS,ioos:station:USF.COMPS:NFB:1,2011-09-02T08:30:00Z,25.0840,-81.0960,27.12,1111122 
COMPS,ioos:station:USF.COMPS:NFB:1,2011-09-02T08:36:00Z,25.0840,-81.0960,27.09,1111122 
COMPS,ioos:station:USF.COMPS:NFB:1,2011-09-02T08:42:00Z,25.0840,-81.0960,27.15,1111122 
COMPS,ioos:station:USF.COMPS:NFB:1,2011-09-02T08:48:00Z,25.0840,-81.0960,27.24,1111122 
COMPS,ioos:station:USF.COMPS:NFB:1,2011-09-02T08:54:00Z,25.0840,-81.0960,27.2,1111122 
COMPS,ioos:station:USF.COMPS:NFB:1,2011-09-02T09:00:00Z,25.0840,-81.0960,27.18,1111122 
COMPS,ioos:station:USF.COMPS:NFB:1,2011-09-02T09:06:00Z,25.0840,-81.0960,27.22,1111122 
COMPS,ioos:station:USF.COMPS:NFB:1,2011-09-02T09:12:00Z,25.0840,-81.0960,27.15,1111122 
COMPS,ioos:station:USF.COMPS:NFB:1,2011-09-02T09:18:00Z,25.0840,-81.0960,27.3,1111122 
COMPS,ioos:station:USF.COMPS:NFB:1,2011-09-02T09:24:00Z,25.0840,-81.0960,27.41,1111122 
COMPS,ioos:station:USF.COMPS:NFB:1,2011-09-02T09:30:00Z,25.0840,-81.0960,27.41,1111122 
COMPS,ioos:station:USF.COMPS:NFB:1,2011-09-02T09:36:00Z,25.0840,-81.0960,27.35,1111122 
COMPS,ioos:station:USF.COMPS:NFB:1,2011-09-02T09:42:00Z,25.0840,-81.0960,27.31,1111122 
COMPS,ioos:station:USF.COMPS:NFB:1,2011-09-02T09:48:00Z,25.0840,-81.0960,27.28,1111122 
COMPS,ioos:station:USF.COMPS:NFB:1,2011-09-02T09:54:00Z,25.0840,-81.0960,27.35,1111122 
COMPS,ioos:station:USF.COMPS:NFB:1,2011-09-02T10:00:00Z,25.0840,-81.0960,27.29,1111122 
COMPS,ioos:station:USF.COMPS:NFB:1,2011-09-02T10:06:00Z,25.0840,-81.0960,27.25,1111122 
COMPS,ioos:station:USF.COMPS:NFB:1,2011-09-02T10:12:00Z,25.0840,-81.0960,27.24,1111122 
COMPS,ioos:station:USF.COMPS:NFB:1,2011-09-02T10:18:00Z,25.0840,-81.0960,27.23,1111122 
COMPS,ioos:station:USF.COMPS:NFB:1,2011-09-02T10:24:00Z,25.0840,-81.0960,27.23,1111122 
COMPS,ioos:station:USF.COMPS:NFB:1,2011-09-02T10:30:00Z,25.0840,-81.0960,27.34,1111122 
COMPS,ioos:station:USF.COMPS:NFB:1,2011-09-02T10:36:00Z,25.0840,-81.0960,27.45,1111122 
COMPS,ioos:station:USF.COMPS:NFB:1,2011-09-02T10:42:00Z,25.0840,-81.0960,27.48,1111122 
COMPS,ioos:station:USF.COMPS:NFB:1,2011-09-02T10:48:00Z,25.0840,-81.0960,27.36,1111122 
COMPS,ioos:station:USF.COMPS:NFB:1,2011-09-02T10:54:00Z,25.0840,-81.0960,27.47,1111122 
COMPS,ioos:station:USF.COMPS:NFB:1,2011-09-02T11:00:00Z,25.0840,-81.0960,27.34,1111122 
COMPS,ioos:station:USF.COMPS:NFB:1,2011-09-02T11:06:00Z,25.0840,-81.0960,27.33,1111122 
COMPS,ioos:station:USF.COMPS:NFB:1,2011-09-02T11:12:00Z,25.0840,-81.0960,27.3,1111122 
COMPS,ioos:station:USF.COMPS:NFB:1,2011-09-02T11:18:00Z,25.0840,-81.0960,27.28,1111122 
COMPS,ioos:station:USF.COMPS:NFB:1,2011-09-02T11:24:00Z,25.0840,-81.0960,27.21,1111122 
COMPS,ioos:station:USF.COMPS:NFB:1,2011-09-02T11:30:00Z,25.0840,-81.0960,27.1,1111122 
COMPS,ioos:station:USF.COMPS:NFB:1,2011-09-02T11:36:00Z,25.0840,-81.0960,27.08,1111122 
COMPS,ioos:station:USF.COMPS:NFB:1,2011-09-02T11:42:00Z,25.0840,-81.0960,27.14,1111122 
COMPS,ioos:station:USF.COMPS:NFB:1,2011-09-02T11:48:00Z,25.0840,-81.0960,27.19,1111122 
COMPS,ioos:station:USF.COMPS:NFB:1,2011-09-02T11:54:00Z,25.0840,-81.0960,27.14,1111122 
COMPS,ioos:station:USF.COMPS:NFB:1,2011-09-02T13:00:00Z,25.0840,-81.0960,27.76,1111122 
COMPS,ioos:station:USF.COMPS:NFB:1,2011-09-02T13:06:00Z,25.0840,-81.0960,27.84,1111122 
COMPS,ioos:station:USF.COMPS:NFB:1,2011-09-02T13:12:00Z,25.0840,-81.0960,27.87,1111122 
COMPS,ioos:station:USF.COMPS:NFB:1,2011-09-02T13:18:00Z,25.0840,-81.0960,27.89,1111122 
COMPS,ioos:station:USF.COMPS:NFB:1,2011-09-02T13:24:00Z,25.0840,-81.0960,27.91,1111122 
COMPS,ioos:station:USF.COMPS:NFB:1,2011-09-02T13:30:00Z,25.0840,-81.0960,27.89,1111122 
COMPS,ioos:station:USF.COMPS:NFB:1,2011-09-02T13:36:00Z,25.0840,-81.0960,28.01,1111122 
COMPS,ioos:station:USF.COMPS:NFB:1,2011-09-02T13:42:00Z,25.0840,-81.0960,28.1,1111122 
COMPS,ioos:station:USF.COMPS:NFB:1,2011-09-02T13:48:00Z,25.0840,-81.0960,28.15,1111122 
COMPS,ioos:station:USF.COMPS:NFB:1,2011-09-02T13:54:00Z,25.0840,-81.0960,28.31,1111122 
COMPS,ioos:station:USF.COMPS:NFB:1,2011-09-02T14:00:00Z,25.0840,-81.0960,28.52,1111122 
COMPS,ioos:station:USF.COMPS:NFB:1,2011-09-02T14:06:00Z,25.0840,-81.0960,28.71,1111122 
COMPS,ioos:station:USF.COMPS:NFB:1,2011-09-02T14:12:00Z,25.0840,-81.0960,28.87,1111122 
COMPS,ioos:station:USF.COMPS:NFB:1,2011-09-02T14:18:00Z,25.0840,-81.0960,28.95,1111122 
COMPS,ioos:station:USF.COMPS:NFB:1,2011-09-02T14:24:00Z,25.0840,-81.0960,29.09,1111122 
COMPS,ioos:station:USF.COMPS:NFB:1,2011-09-02T14:30:00Z,25.0840,-81.0960,29.09,1111122 
COMPS,ioos:station:USF.COMPS:NFB:1,2011-09-02T14:36:00Z,25.0840,-81.0960,29.19,1111122 
COMPS,ioos:station:USF.COMPS:NFB:1,2011-09-02T14:42:00Z,25.0840,-81.0960,29.24,1111122 
COMPS,ioos:station:USF.COMPS:NFB:1,2011-09-02T14:48:00Z,25.0840,-81.0960,29.26,1111122 
COMPS,ioos:station:USF.COMPS:NFB:1,2011-09-02T14:54:00Z,25.0840,-81.0960,29.31,1111122 
COMPS,ioos:station:USF.COMPS:NFB:1,2011-09-02T15:00:00Z,25.0840,-81.0960,29.38,1111122 
COMPS,ioos:station:USF.COMPS:NFB:1,2011-09-02T15:06:00Z,25.0840,-81.0960,29.39,1111122 
COMPS,ioos:station:USF.COMPS:NFB:1,2011-09-02T15:12:00Z,25.0840,-81.0960,29.46,1111122 
COMPS,ioos:station:USF.COMPS:NFB:1,2011-09-02T15:18:00Z,25.0840,-81.0960,29.38,1111122 
COMPS,ioos:station:USF.COMPS:NFB:1,2011-09-02T15:24:00Z,25.0840,-81.0960,29.35,1111122 
COMPS,ioos:station:USF.COMPS:NFB:1,2011-09-02T15:30:00Z,25.0840,-81.0960,29.31,1111122 
COMPS,ioos:station:USF.COMPS:NFB:1,2011-09-02T15:36:00Z,25.0840,-81.0960,29.44,1111122 
COMPS,ioos:station:USF.COMPS:NFB:1,2011-09-02T15:42:00Z,25.0840,-81.0960,29.43,1111122 
COMPS,ioos:station:USF.COMPS:NFB:1,2011-09-02T15:48:00Z,25.0840,-81.0960,29.52,1111122 
COMPS,ioos:station:USF.COMPS:NFB:1,2011-09-02T15:54:00Z,25.0840,-81.0960,29.54,1111122 
COMPS,ioos:station:USF.COMPS:NFB:1,2011-09-02T17:00:00Z,25.0840,-81.0960,29.93,1111122 
COMPS,ioos:station:USF.COMPS:NFB:1,2011-09-02T17:06:00Z,25.0840,-81.0960,29.87,1111122 
COMPS,ioos:station:USF.COMPS:NFB:1,2011-09-02T17:12:00Z,25.0840,-81.0960,29.89,1111122 
COMPS,ioos:station:USF.COMPS:NFB:1,2011-09-02T17:18:00Z,25.0840,-81.0960,29.91,1111122 
COMPS,ioos:station:USF.COMPS:NFB:1,2011-09-02T17:24:00Z,25.0840,-81.0960,29.89,1111122 
COMPS,ioos:station:USF.COMPS:NFB:1,2011-09-02T17:30:00Z,25.0840,-81.0960,29.87,1111122 
COMPS,ioos:station:USF.COMPS:NFB:1,2011-09-02T17:36:00Z,25.0840,-81.0960,29.9,1111122 
COMPS,ioos:station:USF.COMPS:NFB:1,2011-09-02T17:42:00Z,25.0840,-81.0960,29.86,1111122 
COMPS,ioos:station:USF.COMPS:NFB:1,2011-09-02T17:48:00Z,25.0840,-81.0960,29.84,1111122 
COMPS,ioos:station:USF.COMPS:NFB:1,2011-09-02T17:54:00Z,25.0840,-81.0960,29.96,1111122 
COMPS,ioos:station:USF.COMPS:NFB:1,2011-09-02T18:00:00Z,25.0840,-81.0960,30.13,1111122 
COMPS,ioos:station:USF.COMPS:NFB:1,2011-09-02T18:06:00Z,25.0840,-81.0960,30.2,1111122 
COMPS,ioos:station:USF.COMPS:NFB:1,2011-09-02T18:12:00Z,25.0840,-81.0960,30.24,1111122 
COMPS,ioos:station:USF.COMPS:NFB:1,2011-09-02T18:18:00Z,25.0840,-81.0960,30.19,1111122 
COMPS,ioos:station:USF.COMPS:NFB:1,2011-09-02T18:24:00Z,25.0840,-81.0960,30.1,1111122 
COMPS,ioos:station:USF.COMPS:NFB:1,2011-09-02T18:30:00Z,25.0840,-81.0960,30.06,1111122 
COMPS,ioos:station:USF.COMPS:NFB:1,2011-09-02T18:36:00Z,25.0840,-81.0960,30.14,1111122 
COMPS,ioos:station:USF.COMPS:NFB:1,2011-09-02T18:42:00Z,25.0840,-81.0960,30.13,1111122 
COMPS,ioos:station:USF.COMPS:NFB:1,2011-09-02T18:48:00Z,25.0840,-81.0960,30.06,1111122 
COMPS,ioos:station:USF.COMPS:NFB:1,2011-09-02T18:54:00Z,25.0840,-81.0960,29.93,1111122 
COMPS,ioos:station:USF.COMPS:NFB:1,2011-09-02T19:00:00Z,25.0840,-81.0960,29.96,1111122 
COMPS,ioos:station:USF.COMPS:NFB:1,2011-09-02T19:06:00Z,25.0840,-81.0960,30.0,1111122 